This demonstration page uses our WeatherBlox Daily Observations layout. Learn more.

Left ArrowRight Arrow

39.51506, -84.39828

Hourly Observations for August 31, 2021

Temp ( °F °C ) Dew Point ( °F °C ) Humidity (%) Winds ( mph kmh ) Pressure ( in mb ) Visibility ( mi km ) Precip ( " mm )
12:15 am 00:15 Clear 72 22 N/A N/A N N/A 29.90 1013 10 16 N/A
12:35 am 00:35 Clear 72 22 N/A N/A W 3 6 29.90 1013 10 16 N/A
12:55 am 00:55 Partly Cloudy 72 22 N/A N/A N N/A 29.90 1013 10 16 N/A
1:15 am 01:15 Partly Cloudy 72 22 N/A N/A NW 5 7 29.91 1013 10 16 N/A
1:35 am 01:35 Mostly Cloudy 72 22 N/A N/A SSW 5 7 29.90 1013 10 16 N/A
1:55 am 01:55 Mostly Cloudy 72 22 N/A N/A WNW 3 6 29.90 1013 10 16 N/A
2:15 am 02:15 Cloudy 72 22 N/A N/A WSW 3 6 29.90 1013 10 16 N/A
2:35 am 02:35 Cloudy 72 22 N/A N/A SW 5 7 29.89 1012 10 16 N/A
2:55 am 02:55 Mostly Cloudy 72 22 N/A N/A WSW 5 7 29.88 1012 10 16 N/A
3:15 am 03:15 Mostly Cloudy 72 22 N/A N/A SW 5 7 29.88 1012 10 16 N/A
3:35 am 03:35 Cloudy 72 22 N/A N/A SSW 5 7 29.87 1012 10 16 N/A
3:55 am 03:55 Cloudy 72 22 N/A N/A SSW 6 9 29.86 1011 10 16 N/A
4:15 am 04:15 Cloudy 72 22 N/A N/A S 7 11 29.86 1011 10 16 N/A
4:35 am 04:35 Cloudy 72 22 N/A N/A S 7 11 29.85 1011 10 16 N/A
4:55 am 04:55 Cloudy 72 22 N/A N/A S 5 7 29.85 1011 10 16 N/A
5:15 am 05:15 Cloudy 72 22 N/A N/A S 7 11 29.84 1010 10 16 N/A
5:35 am 05:35 Mostly Cloudy 72 22 N/A N/A SW 5 7 29.83 1010 10 16 N/A
5:55 am 05:55 Mostly Cloudy 72 22 N/A N/A SSW 3 6 29.82 1010 10 16 N/A
6:15 am 06:15 Mostly Cloudy 72 22 N/A N/A SW 3 6 29.82 1010 10 16 N/A
6:35 am 06:35 Cloudy 72 22 N/A N/A N N/A 29.82 1010 10 16 N/A
6:55 am 06:55 Cloudy 72 22 N/A N/A N N/A 29.82 1010 10 16 N/A
7:15 am 07:15 Cloudy 72 22 N/A N/A N N/A 29.82 1010 7 11 N/A
7:35 am 07:35 Cloudy 72 22 N/A N/A N N/A 29.81 1009 7 11 N/A
7:55 am 07:55 Cloudy 72 22 N/A N/A ENE 5 7 29.82 1010 7 11 N/A
8:15 am 08:15 Cloudy 72 22 N/A N/A ENE 3 6 29.82 1010 7 11 N/A
8:35 am 08:35 Cloudy 72 22 N/A N/A E 3 6 29.82 1010 7 11 N/A
8:55 am 08:55 Cloudy with Haze 72 22 N/A N/A SE 3 6 29.84 1010 7 11 N/A
9:15 am 09:15 Cloudy 72 22 N/A N/A SSE 3 6 29.83 1010 7 11 N/A
9:35 am 09:35 Cloudy 72 22.3 72 22.3 100 100 N N/A 29.84 1010 7 11 N/A
9:55 am 09:55 Cloudy 72 22 72 22 100 100 S 5 7 29.84 1010 7 11 N/A
10:15 am 10:15 Cloudy with Rain 72 22 N/A N/A SE 5 7 29.84 1010 7 11 N/A
10:35 am 10:35 Cloudy 72 22 N/A N/A ESE 3 6 29.84 1010 7 11 N/A
10:55 am 10:55 Cloudy 73 22.7 73 22.6 99 99 ESE 5 7 29.84 1010 7 11 N/A
11:15 am 11:15 Cloudy 73 23 72 22.4 96 96 ESE 7 11 29.84 1010 10 16 N/A
11:35 am 11:35 Cloudy 75 23.8 72 22.2 91 91 SE 8 13 29.84 1010 10 16 N/A
11:55 am 11:55 Cloudy 75 23.7 71 21.9 90 90 ESE 5 7 29.84 1010 10 16 N/A
12:15 pm 12:15 Cloudy 75 24.1 72 22 88 88 E 8 13 29.82 1010 10 16 N/A
12:35 pm 12:35 Cloudy 75 24 71 21.9 88 88 E 6 9 29.82 1010 10 16 N/A
12:55 pm 12:55 Cloudy 75 24.1 72 22 88 88 ESE 6 9 29.81 1009 10 16 N/A
1:15 pm 13:15 Cloudy 76 24.7 72 22.3 87 87 E 5 7 29.79 1009 10 16 N/A
1:35 pm 13:35 Partly Cloudy 79 26.1 71 21.9 78 78 E 6 9 29.78 1008 10 16 N/A
1:55 pm 13:55 Partly Cloudy 79 26.3 70 21.3 74 74 SE 7 11 29.77 1008 7 11 N/A
2:15 pm 14:15 Partly Cloudy 80 26.7 72 22.1 76 76 S 7 11 29.76 1008 10 16 N/A
2:35 pm 14:35 Partly Cloudy 80 26.6 71 21.4 73 73 SE 8 13 29.76 1008 10 16 N/A
2:55 pm 14:55 Mostly Cloudy 80 26.4 71 21.5 75 75 SE 6 9 29.76 1008 10 16 N/A
3:15 pm 15:15 Cloudy 80 26.5 71 21.4 74 74 E 6 9 29.75 1007 10 16 N/A
3:35 pm 15:35 Cloudy 80 26.4 69 20.6 71 71 E 6 9 29.75 1007 10 16 N/A
3:55 pm 15:55 Cloudy 80 26.6 70 20.9 71 71 ESE 5 7 29.74 1007 10 16 N/A
4:15 pm 16:15 Cloudy 80 26.5 70 20.9 71 71 E 6 9 29.74 1007 10 16 N/A
4:35 pm 16:35 Cloudy 80 26.4 70 21 72 72 SE 5 7 29.73 1007 10 16 N/A
4:55 pm 16:55 Cloudy 79 26.2 70 21.1 74 74 NE 3 6 29.72 1006 10 16 N/A
5:15 pm 17:15 Cloudy 77 25.1 72 22.2 84 84 NE 5 7 29.72 1007 10 16 N/A
5:35 pm 17:35 Cloudy with Light Rain 76 24.2 73 22.6 91 91 ENE 9 15 29.73 1007 10 16 N/A
5:55 pm 17:55 Cloudy with Light Rain 73 22.7 73 22.5 99 99 ENE 12 19 29.74 1007 3 5 N/A
6:15 pm 18:15 Cloudy with Heavy Rain 70 21 N/A N/A ENE 18 30 29.74 1007 2 2 N/A
6:35 pm 18:35 Cloudy with Heavy Rain 70 21 N/A N/A NNE 8 13 29.74 1007 1 2 N/A
6:55 pm 18:55 Cloudy with Rain 70 21 N/A N/A N 5 7 29.73 1007 4 6 N/A
7:15 pm 19:15 Cloudy with Rain 70 21 N/A N/A NE 6 9 29.74 1007 2 3 N/A
7:35 pm 19:35 Cloudy with Rain 70 21 N/A N/A N N/A 29.74 1007 2 3 N/A
7:55 pm 19:55 Cloudy with Light Rain 70 21 N/A N/A NNW 3 6 29.73 1007 3 5 N/A
8:15 pm 20:15 Mostly Cloudy with Light Rain 70 21 N/A N/A N 5 7 29.73 1007 5 8 N/A
8:35 pm 20:35 Mostly Cloudy with Light Rain 70 21 N/A N/A NNE 7 11 29.73 1007 7 11 N/A
8:55 pm 20:55 Partly Cloudy with Light Rain 70 21 N/A N/A NNE 5 7 29.73 1007 7 11 N/A
9:15 pm 21:15 Clear with Light Rain 70 21 N/A N/A NNE 7 11 29.73 1007 7 11 N/A
9:35 pm 21:35 Clear with Light Rain 70 21 N/A N/A NNE 7 11 29.72 1007 10 16 N/A
9:55 pm 21:55 Clear with Light Rain 70 21 N/A N/A NNE 7 11 29.73 1007 7 11 N/A
10:15 pm 22:15 Mostly Cloudy with Light Rain 70 21 N/A N/A NE 7 11 29.73 1007 7 11 N/A
10:35 pm 22:35 Cloudy with Light Rain 70 21 N/A N/A NE 8 13 29.72 1007 7 11 N/A
10:55 pm 22:55 Cloudy with Light Rain 70 21 N/A N/A NE 8 13 29.72 1007 10 16 N/A
11:15 pm 23:15 Mostly Cloudy with Light Rain 70 21 N/A N/A NE 7 11 29.71 1006 7 11 N/A
11:35 pm 23:35 Mostly Cloudy with Light Rain 70 21 N/A N/A NE 8 13 29.71 1006 7 11 0.01 0.25
11:55 pm 23:55 Mostly Cloudy with Light Rain 70 21 N/A N/A NNE 7 11 29.71 1006 7 11 0.01 0.25

Powered by AerisWeather